Kremmling, CO

8:43 AM MST on November 21, 2019 (GMT -0700)
Kremmling

Weather History for K20V - September, 2019

Change the Weather History Date:

Sunday, September 15, 2019

  Actual Average Record
Temperature  
Mean Temperature 56 °F -  
Max Temperature 79 °F - 86 °F (2018)
Min Temperature 32 °F - 24 °F (2003)
Degree Days  
Heating Degree Days 10    
Month to date heating degree days 91  
Cooling Degree Days 0    
Month to date cooling degree days 4  
Growing Degree Days 6 (Base 50)    
Moisture  
Dew Point 29 °F    
Average Humidity 45    
Maximum Humidity 89    
Minimum Humidity 15    
Precipitation  
Precipitation 0.00 in - 0.17 in (2011)
Snow  
Snow 0.00 in - - ()
Snow Depth 0.00 in    
Sea Level Pressure  
Sea Level Pressure 30.33 in    
Wind  
Wind Speed 1 mph ()    
Max Wind Speed 10 mph    
Max Gust Speed -    
Visibility 10.0 miles    
Events      
T = Trace of Precipitation, MM = Missing Value Source: Averaged Metar Reports

Daily Weather History Graph

Daily Weather History Graph

Search for Another Location

Airport or City:

Astronomy

Sep. 15, 2019 Rise Set
Actual Time 6:46 AM MDT 7:14 PM MDT
Civil Twilight 6:19 AM MDT 7:41 PM MDT
Nautical Twilight 5:47 AM MDT 8:13 PM MDT
Astronomical Twilight 5:14 AM MDT 8:46 PM MDT
Moon 8:23 PM MDT (9/15) 7:59 AM MDT (9/15)
Length of Visible Light 13h 22m
Length of Day
12h 28m
Full, 98% of the Moon is Illuminated
Sep 15
Full
Sep 21
Last Quarter
Sep 28
New
Oct 5
First Quarter
Oct 13
Full

Hourly Weather History & Observations

Time (MDT) Temp. Dew Point Humidity Pressure Visibility Wind Dir Wind Speed Gust Speed Precip Events Conditions
12:06 AM 41.0 °F 28.4 °F 61% 30.40 in 10.0 mi Calm Calm - N/A   Clear
12:29 AM 41.0 °F 30.2 °F 65% 30.41 in 10.0 mi Calm Calm - N/A   Clear
12:46 AM 39.2 °F 32.0 °F 75% 30.41 in 10.0 mi Calm Calm - N/A   Clear
1:06 AM 39.2 °F 30.2 °F 70% 30.41 in 10.0 mi Calm Calm - N/A   Clear
1:30 AM 37.4 °F 28.4 °F 70% 30.41 in 10.0 mi Calm Calm - N/A   Clear
1:48 AM 37.4 °F 30.2 °F 75% 30.42 in 10.0 mi Calm Calm - N/A   Clear
2:05 AM 37.4 °F 30.2 °F 75% 30.42 in 10.0 mi Calm Calm - N/A   Clear
2:29 AM 37.4 °F 28.4 °F 70% 30.42 in 10.0 mi Calm Calm - N/A   Clear
2:47 AM 35.6 °F 28.4 °F 75% 30.42 in 10.0 mi Calm Calm - N/A   Clear
3:06 AM 35.6 °F 30.2 °F 81% 30.42 in 10.0 mi Calm Calm - N/A   Clear
3:30 AM 35.6 °F 28.4 °F 75% 30.41 in 10.0 mi Calm Calm - N/A   Clear
3:48 AM 33.8 °F 26.6 °F 75% 30.41 in 10.0 mi Calm Calm - N/A   Clear
4:06 AM 33.8 °F 28.4 °F 81% 30.41 in 10.0 mi Calm Calm - N/A   Clear
4:29 AM 33.8 °F 28.4 °F 81% 30.41 in 10.0 mi Calm Calm - N/A   Clear
4:47 AM 33.8 °F 28.4 °F 81% 30.41 in 10.0 mi Calm Calm - N/A   Clear
5:06 AM 33.8 °F 30.2 °F 87% 30.41 in 10.0 mi Calm Calm - N/A   Clear
5:30 AM 33.8 °F 28.4 °F 81% 30.41 in 10.0 mi Calm Calm - N/A   Clear
5:46 AM 33.8 °F 28.4 °F 81% 30.42 in 10.0 mi Calm Calm - N/A   Clear
6:10 AM 32.0 °F 26.6 °F 80% 30.42 in 10.0 mi Calm Calm - N/A   Clear
6:28 AM 33.8 °F 30.2 °F 87% 30.42 in 10.0 mi Calm Calm - N/A   Clear
6:46 AM 33.8 °F 30.2 °F 87% 30.43 in 10.0 mi Calm Calm - N/A   Clear
7:05 AM 32.0 °F 28.4 °F 87% 30.43 in 10.0 mi Calm Calm - N/A   Clear
7:29 AM 33.8 °F 28.4 °F 81% 30.43 in 10.0 mi Calm Calm - N/A   Clear
7:47 AM 35.6 °F 28.4 °F 75% 30.44 in 10.0 mi Calm Calm - N/A   Clear
8:06 AM 37.4 °F 30.2 °F 75% 30.43 in 10.0 mi Calm Calm - N/A   Clear
8:29 AM 41.0 °F 30.2 °F 65% 30.44 in 10.0 mi Calm Calm - N/A   Clear
8:47 AM 42.8 °F 30.2 °F 61% 30.44 in 10.0 mi Calm Calm - N/A   Clear
9:05 AM 44.6 °F 32.0 °F 61% 30.44 in 10.0 mi Calm Calm - N/A   Clear
9:29 AM 48.2 °F 32.0 °F 54% 30.43 in 10.0 mi Calm Calm - N/A   Clear
9:47 AM 48.2 °F 30.2 °F 50% 30.42 in 10.0 mi Calm Calm - N/A   Clear
10:05 AM 53.6 °F 30.2 °F 41% 30.41 in 10.0 mi Calm Calm - N/A   Clear
10:29 AM 55.4 °F 30.2 °F 38% 30.41 in 10.0 mi Calm Calm - N/A   Clear
10:47 AM 59.0 °F 32.0 °F 36% 30.40 in 10.0 mi Calm Calm - N/A   Clear
11:06 AM 59.0 °F 30.2 °F 34% 30.38 in 10.0 mi Calm Calm - N/A   Clear
11:29 AM 60.8 °F 30.2 °F 31% 30.37 in 10.0 mi NW 3.5 mph - N/A   Clear
11:47 AM 62.6 °F 32.0 °F 32% 30.36 in 10.0 mi Calm Calm - N/A   Clear
12:05 PM 66.2 °F 32.0 °F 28% 30.35 in 10.0 mi Calm Calm - N/A   Clear
12:29 PM 68.0 °F 30.2 °F 24% 30.33 in 10.0 mi Calm Calm - N/A   Clear
12:47 PM 71.6 °F 32.0 °F 23% 30.32 in 10.0 mi WSW 3.5 mph - N/A   Clear
1:06 PM 73.4 °F 30.2 °F 20% 30.30 in 10.0 mi Calm Calm - N/A   Clear
1:30 PM 75.2 °F 26.6 °F 17% 30.28 in 10.0 mi NNW 3.5 mph - N/A   Clear
1:48 PM 75.2 °F 24.8 °F 15% 30.27 in 10.0 mi Calm Calm - N/A   Clear
2:06 PM 77.0 °F 26.6 °F 16% 30.26 in 10.0 mi North 4.6 mph - N/A   Clear
2:30 PM 78.8 °F 26.6 °F 15% 30.25 in 10.0 mi ESE 3.5 mph - N/A   Clear
2:47 PM 78.8 °F 26.6 °F 15% 30.24 in 10.0 mi WSW 8.1 mph - N/A   Clear
3:06 PM 78.8 °F 26.6 °F 15% 30.22 in 10.0 mi SW 3.5 mph - N/A   Clear
3:29 PM 78.8 °F 26.6 °F 15% 30.22 in 10.0 mi WSW 8.1 mph - N/A   Clear
3:47 PM 78.8 °F 28.4 °F 16% 30.21 in 10.0 mi SW 9.2 mph - N/A   Clear
4:06 PM 78.8 °F 28.4 °F 16% 30.21 in 10.0 mi WSW 9.2 mph - N/A   Clear
4:30 PM 78.8 °F 28.4 °F 16% 30.21 in 10.0 mi WSW 10.4 mph - N/A   Clear
4:48 PM 75.2 °F 28.4 °F 18% 30.21 in 10.0 mi WSW 6.9 mph - N/A   Clear
5:06 PM 75.2 °F 28.4 °F 18% 30.21 in 10.0 mi SW 6.9 mph - N/A   Clear
5:29 PM 75.2 °F 28.4 °F 18% 30.21 in 10.0 mi WSW 6.9 mph - N/A   Clear
5:47 PM 73.4 °F 28.4 °F 19% 30.21 in 10.0 mi SW 5.8 mph - N/A   Clear
6:05 PM 73.4 °F 30.2 °F 20% 30.21 in 10.0 mi SW 4.6 mph - N/A   Clear
6:29 PM 73.4 °F 30.2 °F 20% 30.21 in 10.0 mi WSW 5.8 mph - N/A   Clear
6:47 PM 71.6 °F 28.4 °F 20% 30.21 in 10.0 mi WSW 6.9 mph - N/A   Scattered Clouds
7:06 PM 69.8 °F 28.4 °F 21% 30.21 in 10.0 mi WSW 5.8 mph - N/A   Scattered Clouds
7:30 PM 68.0 °F 26.6 °F 21% 30.21 in 10.0 mi NE 3.5 mph - N/A   Mostly Cloudy
7:48 PM 68.0 °F 26.6 °F 21% 30.22 in 10.0 mi ESE 3.5 mph - N/A   Mostly Cloudy
8:06 PM 68.0 °F 26.6 °F 21% 30.22 in 10.0 mi West 4.6 mph - N/A   Mostly Cloudy
8:29 PM 68.0 °F 28.4 °F 23% 30.22 in 10.0 mi West 5.8 mph - N/A   Clear
8:47 PM 68.0 °F 28.4 °F 23% 30.22 in 10.0 mi WSW 9.2 mph - N/A   Clear
9:06 PM 68.0 °F 26.6 °F 21% 30.24 in 10.0 mi West 4.6 mph - N/A   Clear
9:30 PM 64.4 °F 26.6 °F 24% 30.24 in 10.0 mi Calm Calm - N/A   Clear
9:48 PM 62.6 °F 26.6 °F 26% 30.24 in 10.0 mi Calm Calm - N/A   Clear
10:11 PM 59.0 °F 28.4 °F 31% 30.24 in 10.0 mi Calm Calm - N/A   Clear
10:29 PM 59.0 °F 28.4 °F 31% 30.24 in 10.0 mi SE 3.5 mph - N/A   Clear
10:46 PM 55.4 °F 30.2 °F 38% 30.24 in 10.0 mi East 4.6 mph - N/A   Clear
11:06 PM 53.6 °F 30.2 °F 41% 30.24 in 10.0 mi East 5.8 mph - N/A   Clear
11:30 PM 53.6 °F 32.0 °F 44% 30.24 in 10.0 mi Calm Calm - N/A   Clear
11:48 PM 53.6 °F 32.0 °F 44% 30.24 in 10.0 mi East 4.6 mph - N/A   Clear